Flag Weather past 2 weeks in Sandnessjøen, Norway

Now
34 °F

Clear.


Feels Like: 31 °F
Forecast: 31 / 34 °F
Wind: 3 mph from East

Location: Sandnessjoen / Stokka

Current Time: Nov 29, 2014 at 5:16:13 AM

Latest Report: Nov 29, 2014 at 3:50 AM


Visibility: 10 mi

Pressure: 30.30 "Hg

Humidity: 93%

Dew point: 32 °F

Location of SandnessjøenLocation

Historic Weather in Sandnessjøen — Graph

°F

Sandnessjøen temperature yesterday

Maximum temperature yesterday: 43 °F (at 7:20 AM)
Minimum temperature yesterday: 36 °F (at 5:50 PM)
Average temperature yesterday: 40 °F

Past Weeks' High & Low Weather Summary

 TemperatureHumidityPressure
High50 °F (Nov 27, 2:50 PM)100% (Nov 21, 9:50 AM)30.45 "Hg (Nov 21, 9:50 AM)
Low30 °F (Nov 18, 5:20 AM)43% (Nov 27, 10:50 AM)29.74 "Hg (Nov 24, 7:20 AM)
Average39 °F78%30.17 "Hg
* Reported Nov 14 4:50 AM — Nov 29 3:50 AM, Sandnessjøen, Weather by CustomWeather, © 2014

Note: Actual official high and low records may vary slightly from our data, if they occured in-between our weather recording intervals... More about our weather records

Advertising

Sandnessjøen weather history for previous 24 hours

 ConditionsComfort  
Time TempWeatherWind HumidityBarometerVisibility
3:50 AM
Nov 29
34 °FClear.3 mph93%30.30 "Hg10 mi
3:20 AM34 °FClear.3 mph93%30.30 "Hg10 mi
2:50 AM34 °FPassing clouds.3 mph93%30.01 "HgN/A
2:20 AM34 °FClear.5 mph93%30.30 "Hg10 mi
1:50 AM34 °FPassing clouds.3 mph93%30.30 "HgN/A
10:20 PM
Nov 28
37 °FClear.6 mph81%30.30 "Hg10 mi
9:50 PM36 °FClear.2 mph87%30.30 "Hg10 mi
9:20 PM36 °FPassing clouds.5 mph87%30.30 "HgN/A
8:50 PM39 °FClear.9 mph81%30.30 "Hg10 mi
8:20 PM36 °FClear.2 mph87%30.30 "Hg10 mi
7:50 PM39 °FClear.5 mph81%30.30 "Hg10 mi
7:20 PM39 °FPassing clouds.3 mph81%30.30 "HgN/A
6:50 PM36 °FClear.2 mph87%30.27 "Hg10 mi
6:20 PM36 °FClear.3 mph87%30.27 "Hg10 mi
5:50 PM36 °FClear.2 mph87%30.27 "Hg10 mi
5:20 PMN/AClear.1 mphN/AN/A10 mi
4:50 PM37 °FClear.2 mph75%30.27 "Hg10 mi
4:20 PM39 °FClear.2 mph75%30.24 "Hg10 mi
3:50 PM39 °FPassing clouds.3 mph75%30.24 "HgN/A
3:20 PM41 °FClear.6 mph70%30.24 "Hg10 mi
2:50 PM43 °FPassing clouds.6 mph66%30.21 "HgN/A
2:20 PM41 °FClear.3 mph66%30.21 "Hg10 mi
1:50 PM43 °FSunny.6 mph66%30.21 "Hg10 mi
12:50 PM41 °FPassing clouds.6 mph70%30.21 "HgN/A
11:50 AM41 °FSunny.2 mph70%30.21 "Hg10 mi
11:20 AM41 °FPassing clouds.7 mph66%30.21 "HgN/A
10:50 AM43 °FSunny.6 mph61%30.21 "Hg10 mi
10:20 AM43 °FSunny.8 mph66%30.21 "Hg10 mi
9:50 AM43 °FSunny.7 mph61%30.21 "Hg10 mi
9:20 AM43 °FPassing clouds.6 mph61%30.18 "HgN/A
8:50 AM43 °FClear.7 mph61%30.18 "Hg10 mi
8:20 AM43 °FClear.6 mph66%30.18 "Hg10 mi
7:50 AM43 °FClear.5 mph66%30.18 "Hg10 mi
7:20 AM43 °FClear.6 mph66%30.18 "Hg10 mi
6:50 AM41 °FClear.9 mph70%30.18 "Hg10 mi
6:20 AM39 °FClear.5 mph75%30.18 "Hg10 mi
5:50 AM41 °FClear.2 mph70%30.18 "Hg10 mi
5:20 AM41 °FClear.6 mph70%30.15 "Hg10 mi
Weather by CustomWeather, © 2014

See weather overviewHow to use our weather pages